Powrót do katalogu

CZ-4C DEB

AktywnyPO
NORAD 38294·DEBRIS·🇨🇳 China

Wystrzelony Nov 4, 2010 z Taiyuan Satellite Launch Center

Loading…

Następne Przeloty (najbliższe 24 godziny)

TLE

ŚwieżeSource: Space-Track

Epoka: Sep 14, 2026, 07:45 UTC

1 38294U 10059D   26257.32306078  .00000255  00000-0  24694-3 0  9992
2 38294  98.6356  99.5628 0259251 261.1216  96.0505 13.73912298781306

Śledź CZ-4C DEB w czasie rzeczywistym z AllMySat

Download on the App Store